[[{"header":{"parameterUnit":"m.s-1","parameterCategory":1,"la1":30.2991,"la2":30.254,"lo1":-89.0895,"lo2":-89.0444,"dy":0.0017,"dx":0.0017,"nx":28,"ny":28,"refTime":"2025-04-30T09:00:00:Z","depth":0,"parameterNumber":2,"parameterNumberName":"U-component_of_WINDS"},"data":[0,0,0,0,0,0,0,0,0,0,0,0,0,0,0,0,0,0,0,0,0,0,0,0,0,0,0,0,0,0,0,0,0,0,0,0,0,0,0,0,0,0,0,0,0,0,0,0,0,0,0,0,0,0,0,0,0,0,-0.9013,-0.9012,0,-0.8967,-0.8966,-0.8966,-0.8937,-0.8937,-0.8937,-0.8937,-0.8891,-0.889,-0.8889,0,0,0,0,0,0,0,0,0,0,0,0,0,-0.9077,-0.9076,-0.9013,-0.9012,-0.9012,-0.8967,-0.8966,-0.8966,-0.8937,-0.8937,-0.8937,-0.8937,-0.8891,-0.889,-0.8888,0,0,0,0,0,0,0,0,0,0,0,0,0,-0.9042,-0.9076,-0.9013,-0.8992,-0.899,-0.8967,-0.8966,-0.8966,-0.8937,-0.8937,-0.8937,-0.8936,-0.8891,-0.889,-0.8888,-0.8883,0,0,-0.8883,-0.8883,0,0,0,0,0,0,0,0,-0.9044,-0.904,-0.8996,-0.8993,-0.8991,-0.8957,-0.8972,-0.8938,-0.8937,-0.8957,-0.8937,-0.8936,-0.8913,-0.891,-0.8902,-0.8881,-0.8879,-0.8883,-0.8882,-0.8882,-0.8881,0,0,0,0,0,0,0,-0.9047,-0.9042,-0.8995,-0.8995,-0.8992,-0.8985,-0.898,-0.8966,-0.8937,-0.8955,-0.8953,-0.8948,-0.8912,-0.8903,-0.89,-0.8879,-0.8883,-0.8882,-0.8881,-0.888,-0.8852,-0.8852,0,0,0,0,0,0,-0.9052,-0.9044,-0.8996,-0.8993,-0.9017,-0.8984,-0.8979,-0.8968,-0.8937,-0.8932,-0.8948,-0.8947,-0.8906,-0.8902,-0.8899,-0.8891,-0.8882,-0.888,-0.8879,-0.8852,-0.8852,-0.8852,0,0,0,0,0,0,-0.9054,-0.9048,-0.8998,-0.9018,-0.9011,-0.8984,-0.8972,-0.8968,-0.8959,-0.8932,-0.8927,-0.8945,-0.8906,-0.8901,-0.8887,-0.8889,-0.8879,-0.8878,-0.8852,-0.8852,-0.8852,-0.8875,0,0,0,0,0,0,-0.9056,-0.9049,-0.9046,-0.9018,-0.901,-0.8987,-0.8973,-0.8967,-0.8956,-0.8954,-0.8927,-0.8923,-0.8905,-0.889,-0.8886,-0.8887,-0.8877,-0.8851,-0.8852,-0.8852,-0.8874,-0.8876,-0.8878,0,0,0,0,0,-0.9058,-0.9055,-0.9046,-0.9041,-0.9006,-0.8987,-0.8983,-0.8963,-0.8957,-0.8954,-0.8937,-0.8923,-0.889,-0.8889,-0.8884,-0.8884,-0.8851,-0.8852,-0.8852,-0.8873,-0.8876,-0.8878,0,0,0,0,0,0,-0.9085,-0.9051,-0.9041,-0.9029,-0.9011,-0.8982,-0.8979,-0.8966,-0.895,-0.8949,-0.8925,-0.8919,-0.8908,-0.8895,-0.8894,-0.8878,-0.8869,-0.8868,-0.8887,-0.8889,-0.8891,-0.8894,-0.8875,0,0,0,0,0,-0.9089,-0.9076,-0.9047,-0.9039,-0.9031,-0.9006,-0.8997,-0.8983,-0.8964,-0.8957,-0.8938,-0.8921,-0.8906,-0.8897,-0.8882,-0.8873,-0.8866,-0.887,-0.8872,-0.8874,-0.8874,-0.8868,-0.8869,-0.8854,-0.8854,-0.8854,0,0,-0.9098,-0.9078,-0.9071,-0.9044,-0.9029,-0.9016,-0.9,-0.8988,-0.8978,-0.8955,-0.8941,-0.8927,-0.8906,-0.8894,-0.8888,-0.8883,-0.8877,-0.8875,-0.8876,-0.8875,-0.8868,-0.887,-0.8871,-0.8854,-0.8854,-0.8854,0,0,-0.9108,-0.9091,-0.9083,-0.9068,-0.9044,-0.9028,-0.9026,-0.9,-0.8989,-0.8975,-0.8957,-0.8946,-0.8921,-0.8907,-0.8896,-0.8901,-0.8888,-0.8897,-0.8907,-0.8901,-0.8902,-0.8903,-0.8905,-0.8906,-0.8897,-0.8897,-0.8897,0,-0.9122,-0.9102,-0.908,-0.9068,-0.9057,-0.9035,-0.9026,-0.9013,-0.8987,-0.898,-0.8974,-0.8942,-0.8927,-0.8911,-0.8913,-0.8905,-0.8902,-0.8899,-0.8904,-0.8905,-0.8905,-0.8906,-0.8907,-0.8898,-0.8898,-0.8898,-0.8897,0,-0.912,-0.9107,-0.9103,-0.9077,-0.9065,-0.9055,-0.9032,-0.9023,-0.901,-0.8995,-0.8981,-0.8961,-0.8942,-0.8937,-0.8925,-0.892,-0.8918,-0.8908,-0.8899,-0.8908,-0.8909,-0.8909,-0.89,-0.8899,-0.8899,-0.8898,0,0,-0.9145,-0.9108,-0.9107,-0.9095,-0.9068,-0.9057,-0.9046,-0.9027,-0.902,-0.9002,-0.8993,-0.8972,-0.8964,-0.8952,-0.8937,-0.8933,-0.8938,-0.8924,-0.8923,-0.8927,-0.8932,-0.8938,-0.8939,-0.8929,-0.8929,-0.8929,-0.8933,0,-0.9151,-0.913,-0.911,-0.9096,-0.9083,-0.9063,-0.9053,-0.9036,-0.9021,-0.9009,-0.8993,-0.8979,-0.8968,-0.8961,-0.8955,-0.8938,-0.8938,-0.8938,-0.892,-0.892,-0.8926,-0.894,-0.8947,-0.8952,-0.8933,-0.8933,-0.8934,0,-0.9155,-0.9138,-0.9122,-0.9097,-0.9091,-0.9082,-0.9063,-0.9051,-0.9031,-0.9021,-0.9008,-0.8993,-0.8981,-0.8973,-0.8956,-0.8956,-0.8948,-0.8939,-0.8938,-0.8936,-0.8927,-0.8937,-0.8953,-0.8953,-0.8934,-0.8934,-0.8934,0,-0.9175,-0.9148,-0.9135,-0.9126,-0.9095,-0.909,-0.9077,-0.9057,-0.9047,-0.903,-0.9023,-0.9006,-0.8996,-0.8983,-0.8964,-0.896,-0.8949,-0.894,-0.894,-0.8941,-0.8939,-0.8939,-0.8953,-0.8934,-0.8934,-0.8934,-0.8934,0,-0.9183,-0.9174,-0.9143,-0.9136,-0.9126,-0.9103,-0.9094,-0.908,-0.9062,-0.9051,-0.9032,-0.9023,-0.8998,-0.8986,-0.8971,-0.8959,-0.8955,-0.8947,-0.8943,-0.8948,-0.8949,-0.8942,-0.8941,-0.8934,-0.8934,-0.8934,-0.8934,0,-0.9203,-0.9182,-0.9167,-0.9139,-0.9132,-0.9126,-0.9103,-0.9094,-0.9079,-0.9066,-0.9061,-0.9037,-0.9021,-0.9001,-0.8979,-0.8969,-0.8959,-0.8953,-0.8966,-0.8963,-0.8965,-0.8965,-0.8975,-0.8975,-0.8956,-0.8957,-0.8957,0,-0.921,-0.9203,-0.9174,-0.9165,-0.9153,-0.9139,-0.9128,-0.9106,-0.9096,-0.9073,-0.9068,-0.9051,-0.9036,-0.9012,-0.8993,-0.8976,-0.8969,-0.8974,-0.8967,-0.8972,-0.8969,-0.897,-0.8969,-0.8975,-0.8976,-0.8976,-0.8976,0,-0.9224,-0.9214,-0.9198,-0.918,-0.9167,-0.9152,-0.9135,-0.9129,-0.9104,-0.9093,-0.9077,-0.9066,-0.9043,-0.9027,-0.9007,-0.8994,-0.8981,-0.8979,-0.8978,-0.8983,-0.8991,-0.8986,-0.897,-0.8978,-0.8978,-0.8978,-0.8978,-0.8978,-0.9237,-0.923,-0.9208,-0.9192,-0.9177,-0.9162,-0.9153,-0.9136,-0.9122,-0.9102,-0.909,-0.9074,-0.9055,-0.9027,-0.9015,-0.9003,-0.8998,-0.8997,-0.8996,-0.8996,-0.8998,-0.8993,-0.8999,-0.8999,-0.8999,-0.8999,-0.8999,0,-0.925,-0.9235,-0.9221,-0.9198,-0.9185,-0.9173,-0.9155,-0.9145,-0.9131,-0.9114,-0.9099,-0.9081,-0.9065,-0.9044,-0.9026,-0.902,-0.9014,-0.9017,-0.9017,-0.9014,-0.9004,-0.9006,-0.9022,-0.9022,-0.9022,-0.9022,-0.9022,-0.9022,-0.9255,-0.9242,-0.9229,-0.9209,-0.9194,-0.9178,-0.9168,-0.9154,-0.914,-0.912,-0.9106,-0.9093,-0.9074,-0.9055,-0.904,-0.9034,-0.9029,-0.9033,-0.9026,-0.9017,-0.9015,-0.9013,-0.9015,-0.9032,-0.9032,-0.9037,-0.9037,-0.9037]},{"header":{"parameterUnit":"m.s-1","parameterCategory":1,"la1":30.2991,"la2":30.254,"lo1":-89.0895,"lo2":-89.0444,"dy":0.0017,"dx":0.0017,"nx":28,"ny":28,"refTime":"2025-04-30T09:00:00:Z","depth":0,"parameterNumber":3,"parameterNumberName":"V-component_of_WINDS"},"data":[0,0,0,0,0,0,0,0,0,0,0,0,0,0,0,0,0,0,0,0,0,0,0,0,0,0,0,0,0,0,0,0,0,0,0,0,0,0,0,0,0,0,0,0,0,0,0,0,0,0,0,0,0,0,0,0,0,0,4.5207,4.5207,0,4.5184,4.5184,4.5184,4.5127,4.5126,4.5124,4.5123,4.5102,4.5102,4.5103,0,0,0,0,0,0,0,0,0,0,0,0,0,4.5202,4.5203,4.5207,4.5207,4.5206,4.5184,4.5184,4.5184,4.5127,4.5126,4.5124,4.5123,4.5102,4.5102,4.5103,0,0,0,0,0,0,0,0,0,0,0,0,0,4.5194,4.5203,4.5207,4.5175,4.5172,4.5184,4.5184,4.5184,4.5127,4.5126,4.5124,4.5122,4.5101,4.5102,4.5103,4.5144,0,0,4.5105,4.5106,0,0,0,0,0,0,0,0,4.5195,4.5195,4.518,4.5178,4.5174,4.5156,4.5174,4.5171,4.5128,4.5144,4.5123,4.5121,4.5122,4.5121,4.512,4.5143,4.5142,4.5106,4.5106,4.5106,4.5107,0,0,0,0,0,0,0,4.5196,4.5195,4.5198,4.518,4.5176,4.5163,4.516,4.5173,4.5144,4.5143,4.5139,4.5137,4.5119,4.512,4.5119,4.5142,4.5106,4.5106,4.5107,4.5107,4.5198,4.5199,0,0,0,0,0,0,4.52,4.5196,4.5199,4.5197,4.518,4.5164,4.5161,4.5164,4.5143,4.5138,4.5138,4.5134,4.5119,4.5119,4.5118,4.5165,4.5106,4.5107,4.5108,4.5196,4.5198,4.52,0,0,0,0,0,0,4.5201,4.5201,4.52,4.5196,4.5194,4.5166,4.517,4.5165,4.5165,4.514,4.5134,4.5144,4.5118,4.5117,4.5138,4.5163,4.5108,4.5108,4.5193,4.5196,4.5199,4.5259,0,0,0,0,0,0,4.5201,4.5202,4.5217,4.5196,4.5195,4.5219,4.5172,4.5165,4.5166,4.516,4.5143,4.5139,4.5116,4.5137,4.5139,4.5163,4.5109,4.5191,4.5195,4.5198,4.5254,4.5263,4.5271,0,0,0,0,0,4.5201,4.5235,4.5218,4.5218,4.5213,4.5221,4.522,4.5193,4.5168,4.5183,4.5167,4.5139,4.5161,4.514,4.5141,4.5167,4.5189,4.5194,4.5198,4.5251,4.5261,4.5271,0,0,0,0,0,0,4.5259,4.5232,4.5212,4.5241,4.5234,4.5211,4.5229,4.5205,4.5205,4.52,4.5167,4.5164,4.5189,4.518,4.5157,4.5205,4.517,4.5175,4.521,4.522,4.5228,4.5229,4.511,0,0,0,0,0,4.5276,4.5284,4.5259,4.5287,4.5284,4.5258,4.526,4.524,4.5231,4.5228,4.5213,4.5207,4.5212,4.5216,4.5219,4.5253,4.5248,4.5271,4.528,4.5287,4.5291,4.5308,4.5317,4.5214,4.5214,4.5214,0,0,4.5309,4.5295,4.5302,4.5298,4.529,4.53,4.5255,4.5268,4.5274,4.523,4.5248,4.5238,4.5228,4.5256,4.5267,4.5249,4.5318,4.5292,4.5298,4.5298,4.5313,4.5323,4.5332,4.5217,4.5217,4.5216,0,0,4.5375,4.5365,4.5387,4.538,4.5368,4.535,4.5356,4.5337,4.5328,4.5346,4.5312,4.5321,4.533,4.5324,4.5322,4.5387,4.5361,4.5389,4.5432,4.5449,4.5457,4.5464,4.5486,4.5494,4.5393,4.5394,4.5394,0,4.5418,4.5431,4.5401,4.5415,4.5414,4.5374,4.5396,4.5391,4.5381,4.5382,4.5361,4.5372,4.5363,4.5388,4.5404,4.5404,4.5409,4.539,4.5458,4.5465,4.5471,4.5492,4.55,4.5397,4.5397,4.5396,4.5396,0,4.5484,4.5494,4.5513,4.5503,4.5505,4.5523,4.5496,4.5501,4.5481,4.5466,4.5485,4.5472,4.5472,4.5477,4.5457,4.5499,4.5488,4.5464,4.5428,4.5484,4.5503,4.5511,4.5402,4.5401,4.54,4.5399,0,0,4.5585,4.556,4.5567,4.5562,4.5547,4.5554,4.557,4.5569,4.5574,4.5569,4.5582,4.5591,4.5568,4.5566,4.5546,4.5561,4.5612,4.5534,4.5534,4.5548,4.5657,4.5675,4.5684,4.5595,4.5597,4.5598,4.5657,0,4.5647,4.5672,4.5646,4.5677,4.5685,4.5647,4.5662,4.5654,4.564,4.5645,4.563,4.5637,4.5606,4.5605,4.5618,4.5603,4.5633,4.5598,4.5606,4.5607,4.5609,4.5694,4.5713,4.577,4.5665,4.5666,4.5667,0,4.5721,4.5719,4.575,4.5732,4.5735,4.5748,4.5745,4.5751,4.5741,4.573,4.5729,4.5704,4.5719,4.5685,4.5705,4.5682,4.5684,4.5677,4.5679,4.5678,4.564,4.5695,4.5788,4.5796,4.5678,4.5677,4.5677,0,4.579,4.5796,4.5815,4.5812,4.5792,4.5802,4.5794,4.5783,4.5784,4.5782,4.5783,4.5783,4.5783,4.5784,4.576,4.5737,4.5783,4.5747,4.5774,4.5775,4.5784,4.5784,4.5878,4.5788,4.5788,4.5787,4.5787,0,4.5861,4.5882,4.5846,4.5858,4.588,4.585,4.5873,4.5861,4.5852,4.5861,4.5829,4.5839,4.5807,4.5814,4.5795,4.5815,4.5815,4.5806,4.5801,4.5809,4.581,4.5809,4.5804,4.579,4.5789,4.5789,4.5788,0,4.5942,4.5919,4.5937,4.5917,4.5912,4.5929,4.5912,4.5922,4.5906,4.5918,4.592,4.5895,4.5901,4.5877,4.588,4.5867,4.5896,4.5884,4.5899,4.5895,4.5923,4.592,4.6019,4.603,4.5933,4.5934,4.5935,0,4.5988,4.6002,4.5983,4.5987,4.5981,4.5987,4.5988,4.596,4.5962,4.5953,4.5964,4.5967,4.5968,4.5979,4.5962,4.5963,4.5951,4.5985,4.5951,4.5958,4.595,4.5949,4.595,4.5992,4.5993,4.5994,4.5995,0,4.6071,4.6059,4.6061,4.606,4.6062,4.6059,4.6055,4.606,4.6029,4.6034,4.6039,4.6039,4.6041,4.6044,4.6042,4.6034,4.601,4.6006,4.6012,4.602,4.6027,4.6023,4.5917,4.6004,4.6003,4.6002,4.6002,4.6002,4.6135,4.6147,4.6135,4.6138,4.6132,4.6128,4.6137,4.6122,4.6126,4.6124,4.6108,4.6116,4.6107,4.6101,4.6096,4.6102,4.6086,4.6095,4.6097,4.61,4.6104,4.6027,4.6102,4.6102,4.6101,4.6101,4.6101,0,4.6216,4.6207,4.6211,4.6205,4.6208,4.6184,4.6178,4.6182,4.619,4.6183,4.6184,4.619,4.6193,4.6176,4.6177,4.6186,4.6174,4.6187,4.6185,4.6184,4.6119,4.6113,4.6196,4.6196,4.6196,4.6196,4.6196,4.6196,4.6259,4.6277,4.6263,4.6277,4.6268,4.6275,4.6274,4.6271,4.6265,4.6273,4.6275,4.6264,4.6253,4.6252,4.6254,4.6249,4.6251,4.6267,4.6258,4.6198,4.6189,4.618,4.6174,4.6268,4.6268,4.6322,4.6323,4.6323]}]]